| time (UTC) | temp F | wind direction | speed knots | gust knots | rain 1hr in | rain 24hr in | rain mn in | humidity % | barometer mb |
| 20260905040024 | 73 | 47 | 3.5 | 9.6 | 0.00 | 0.00 | 0.00 | 76 | 1014.1 |
| 20260905034523 | 74 | 36 | 3.5 | 9.6 | 0.00 | 0.00 | 0.00 | 76 | 1014.2 |
| 20260905033020 | 74 | 355 | 2.6 | 5.2 | 0.00 | 0.00 | 0.00 | 75 | 1014.1 |
| 20260905031523 | 75 | 19 | 3.5 | 9.6 | 0.00 | 0.00 | 0.00 | 74 | 1014.0 |
| 20260905030017 | 76 | 18 | 4.3 | 9.6 | 0.00 | 0.00 | 0.00 | 73 | 1013.9 |
| 20260905024527 | 76 | 54 | 4.3 | 12.2 | 0.00 | 0.00 | 0.00 | 71 | 1013.6 |
| 20260905023007 | 77 | 355 | 7.0 | 11.3 | 0.00 | 0.00 | 0.00 | 70 | 1013.4 |
| 20260905021502 | 78 | 13 | 5.2 | 9.6 | 0.00 | 0.00 | 0.00 | 70 | 1013.2 |
| 20260905020107 | 79 | 360 | 1.7 | 9.6 | 0.00 | 0.00 | 0.00 | 70 | 1013.2 |
| 20260905014557 | 80 | 11 | 1.7 | 7.0 | 0.00 | 0.00 | 0.00 | 69 | 1013.0 |
| 20260905013054 | 80 | 11 | 0.9 | 7.0 | 0.00 | 0.00 | 0.00 | 69 | 1013.0 |
| 20260905011546 | 81 | 32 | 0.9 | 5.2 | 0.00 | 0.00 | 0.00 | 68 | 1012.8 |
| 20260905010050 | 81 | 12 | 1.7 | 4.3 | 0.00 | 0.00 | 0.00 | 67 | 1012.7 |
| 20260905004555 | 82 | 46 | 0.0 | 3.5 | 0.00 | 0.00 | 0.00 | 66 | 1012.6 |
| 20260905003037 | 83 | 63 | 0.9 | 3.5 | 0.00 | 0.00 | 0.00 | 64 | 1012.6 |
| 20260905001535 | 84 | 27 | 0.0 | 3.5 | 0.00 | 0.00 | 0.00 | 63 | 1012.4 |
| 20260905000033 | 85 | 355 | 2.6 | 7.0 | 0.00 | 0.00 | 0.00 | 62 | 1012.3 |
| 20260904234532 | 86 | 355 | 1.7 | 4.3 | 0.00 | 0.00 | 0.00 | 62 | 1012.3 |
| 20260904233033 | 86 | 324 | 3.5 | 8.7 | 0.00 | 0.00 | 0.00 | 63 | 1012.2 |
| 20260904231535 | 87 | 26 | 2.6 | 7.0 | 0.00 | 0.00 | 0.00 | 62 | 1012.2 |
| 20260904230029 | 87 | 58 | 1.7 | 5.2 | 0.00 | 0.00 | 0.00 | 61 | 1012.0 |
| 20260904224527 | 87 | 323 | 2.6 | 7.0 | 0.00 | 0.00 | 0.00 | 62 | 1012.0 |
| 20260904223027 | 86 | 331 | 3.5 | 7.8 | 0.00 | 0.00 | 0.00 | 61 | 1011.9 |
| 20260904221526 | 87 | 355 | 2.6 | 7.0 | 0.00 | 0.00 | 0.00 | 62 | 1011.8 |
| 20260904220025 | 87 | 51 | 2.6 | 7.8 | 0.00 | 0.00 | 0.00 | 61 | 1011.6 |
| 20260904214524 | 87 | 355 | 3.5 | 7.0 | 0.00 | 0.00 | 0.00 | 62 | 1011.6 |
| 20260904213028 | 87 | 34 | 3.5 | 7.8 | 0.00 | 0.00 | 0.00 | 62 | 1011.5 |
| 20260904211523 | 87 | 355 | 3.5 | 7.8 | 0.00 | 0.00 | 0.00 | 63 | 1011.6 |
| 20260904210027 | 86 | 32 | 2.6 | 8.7 | 0.00 | 0.00 | 0.00 | 63 | 1011.7 |
| 20260904204517 | 86 | 301 | 1.7 | 7.0 | 0.00 | 0.00 | 0.00 | 65 | 1011.5 |
| 20260904203016 | 85 | 9 | 3.5 | 7.8 | 0.00 | 0.00 | 0.00 | 66 | 1011.3 |
| 20260904201512 | 85 | 351 | 0.9 | 7.8 | 0.00 | 0.00 | 0.00 | 68 | 1011.1 |
| 20260904190019 | 83 | 86 | 2.6 | 8.7 | 0.00 | 0.00 | 0.00 | 71 | 1011.8 |
| 20260904184512 | 83 | 355 | 4.3 | 11.3 | 0.00 | 0.03 | 0.00 | 71 | 1011.8 |
| 20260904183014 | 81 | 5 | 3.5 | 9.6 | 0.00 | 0.03 | 0.00 | 73 | 1011.7 |
| 20260904181510 | 81 | 350 | 4.3 | 10.4 | 0.00 | 0.03 | 0.00 | 74 | 1011.7 |
| 20260904180011 | 82 | 350 | 6.1 | 11.3 | 0.00 | 0.03 | 0.00 | 73 | 1011.7 |
| 20260904174507 | 82 | 355 | 2.6 | 9.6 | 0.00 | 0.03 | 0.00 | 74 | 1011.5 |
| 20260904173004 | 82 | 13 | 3.5 | 8.7 | 0.00 | 0.03 | 0.00 | 74 | 1011.4 |
| 20260904171502 | 82 | 355 | 4.3 | 8.7 | 0.00 | 0.03 | 0.00 | 74 | 1011.3 |
| 20260904170100 | 82 | 351 | 2.6 | 10.4 | 0.00 | 0.03 | 0.00 | 76 | 1011.2 |
| 20260904164559 | 81 | 334 | 3.5 | 8.7 | 0.00 | 0.03 | 0.00 | 75 | 1011.2 |
| 20260904163058 | 83 | 355 | 3.5 | 9.6 | 0.00 | 0.03 | 0.00 | 74 | 1011.0 |
| 20260904161553 | 85 | 5 | 3.5 | 9.6 | 0.00 | 0.03 | 0.00 | 72 | 1010.8 |
| 20260904160050 | 85 | 338 | 2.6 | 6.1 | 0.00 | 0.03 | 0.00 | 72 | 1010.6 |
| 20260904154546 | 85 | 322 | 1.7 | 5.2 | 0.00 | 0.03 | 0.00 | 70 | 1010.6 |
| 20260904153044 | 84 | 11 | 0.9 | 3.5 | 0.00 | 0.03 | 0.00 | 72 | 1010.3 |
| 20260904151538 | 84 | 298 | 0.9 | 3.5 | 0.00 | 0.03 | 0.00 | 73 | 1010.2 |
| 20260904150038 | 83 | 254 | 0.9 | 2.6 | 0.00 | 0.03 | 0.00 | 75 | 1010.1 |
| 20260904144530 | 82 | 200 | 0.9 | 2.6 | 0.00 | 0.03 | 0.00 | 77 | 1010.0 |
| 20260904143026 | 82 | 355 | 0.9 | 3.5 | 0.00 | 0.03 | 0.00 | 76 | 1010.1 |
| 20260904141526 | 82 | 146 | 0.0 | 1.7 | 0.00 | 0.03 | 0.00 | 76 | 1010.0 |
| 20260904140018 | 80 | 133 | 0.0 | 1.7 | 0.00 | 0.03 | 0.00 | 79 | 1009.9 |
| 20260904134514 | 80 | 40 | 0.0 | 1.7 | 0.00 | 0.03 | 0.00 | 79 | 1010.1 |
| 20260904133010 | 79 | 37 | 0.0 | 1.7 | 0.00 | 0.03 | 0.00 | 82 | 1010.1 |
| 20260904131506 | 77 | 37 | 0.9 | 2.6 | 0.00 | 0.03 | 0.00 | 84 | 1009.9 |
| 20260904130002 | 76 | 35 | 0.0 | 1.7 | 0.00 | 0.03 | 0.00 | 87 | 1009.9 |
| 20260904124558 | 75 | 35 | 0.0 | 2.6 | 0.00 | 0.03 | 0.00 | 89 | 1009.7 |
| 20260904123057 | 74 | 35 | 0.9 | 2.6 | 0.00 | 0.03 | 0.00 | 89 | 1009.6 |
| 20260904121550 | 73 | 38 | 0.9 | 3.5 | 0.00 | 0.03 | 0.00 | 89 | 1009.2 |
| 20260904120051 | 73 | 55 | 0.0 | 2.6 | 0.00 | 0.03 | 0.00 | 89 | 1009.2 |
| 20260904114548 | 73 | 54 | 1.7 | 3.5 | 0.00 | 0.03 | 0.00 | 89 | 1009.2 |
| 20260904113044 | 73 | 50 | 0.0 | 2.6 | 0.00 | 0.03 | 0.00 | 89 | 1009.0 |
| 20260904111545 | 74 | 48 | 1.7 | 2.6 | 0.00 | 0.03 | 0.00 | 88 | 1008.9 |
| 20260904110042 | 74 | 49 | 0.9 | 1.7 | 0.00 | 0.03 | 0.00 | 88 | 1008.9 |
| 20260904104540 | 74 | 49 | 0.9 | 2.6 | 0.00 | 0.03 | 0.00 | 88 | 1008.9 |
| 20260904103050 | 74 | 40 | 1.7 | 2.6 | 0.00 | 0.03 | 0.00 | 88 | 1008.9 |
| 20260904101539 | 75 | 41 | 1.7 | 3.5 | 0.00 | 0.03 | 0.00 | 87 | 1009.0 |
| 20260904100035 | 75 | 77 | 0.9 | 3.5 | 0.00 | 0.03 | 0.00 | 86 | 1008.8 |
| 20260904094532 | 76 | 161 | 0.9 | 1.7 | 0.00 | 0.03 | 0.00 | 85 | 1008.7 |
| 20260904093031 | 76 | 161 | 0.0 | 2.6 | 0.00 | 0.03 | 0.00 | 85 | 1008.6 |
| 20260904091530 | 76 | 161 | 1.7 | 4.3 | 0.00 | 0.03 | 0.00 | 85 | 1008.4 |
| 20260904090029 | 76 | 161 | 1.7 | 2.6 | 0.00 | 0.03 | 0.00 | 85 | 1008.4 |
| 20260904084527 | 77 | 161 | 0.9 | 1.7 | 0.00 | 0.03 | 0.00 | 84 | 1008.4 |
| 20260904083034 | 77 | 161 | 0.0 | 2.6 | 0.00 | 0.03 | 0.00 | 84 | 1008.3 |
| 20260904081526 | 77 | 160 | 0.9 | 2.6 | 0.00 | 0.03 | 0.00 | 84 | 1008.2 |
| 20260904080026 | 77 | 146 | 1.7 | 3.5 | 0.00 | 0.03 | 0.00 | 84 | 1008.2 |
| 20260904074543 | 77 | 147 | 0.0 | 1.7 | 0.00 | 0.03 | 0.00 | 83 | 1008.2 |
| 20260904073033 | 77 | 147 | 0.0 | 3.5 | 0.00 | 0.03 | 0.00 | 83 | 1008.3 |
| 20260904071523 | 77 | 150 | 0.0 | 1.7 | 0.00 | 0.03 | 0.00 | 83 | 1008.3 |
| 20260904070023 | 78 | 150 | 0.0 | 1.7 | 0.00 | 0.03 | 0.00 | 82 | 1008.4 |
| 20260904064520 | 78 | 150 | 0.9 | 2.6 | 0.00 | 0.03 | 0.00 | 82 | 1008.3 |
| 20260904063020 | 78 | 151 | 1.7 | 4.3 | 0.00 | 0.03 | 0.00 | 81 | 1008.4 |
| 20260904061519 | 78 | 154 | 1.7 | 5.2 | 0.00 | 0.03 | 0.00 | 81 | 1008.3 |
| 20260904060024 | 78 | 157 | 1.7 | 5.2 | 0.00 | 0.03 | 0.00 | 81 | 1008.4 |
| 20260904054517 | 78 | 159 | 2.6 | 5.2 | 0.00 | 0.03 | 0.00 | 80 | 1008.4 |
| 20260904053020 | 78 | 159 | 1.7 | 4.3 | 0.00 | 0.03 | 0.00 | 80 | 1008.3 |
| 20260904051513 | 79 | 146 | 1.7 | 5.2 | 0.00 | 0.03 | 0.00 | 79 | 1008.3 |
| 20260904050010 | 79 | 149 | 1.7 | 4.3 | 0.00 | 0.03 | 0.00 | 79 | 1008.2 |
| 20260904044510 | 79 | 153 | 1.7 | 7.0 | 0.00 | 0.03 | 0.03 | 78 | 1008.2 |
| 20260904043015 | 79 | 152 | 1.7 | 5.2 | 0.00 | 0.03 | 0.03 | 78 | 1008.1 |
| 20260904041509 | 80 | 149 | 1.7 | 5.2 | 0.00 | 0.03 | 0.03 | 77 | 1008.1 |